This is the latest recevied weather packets stored in our database for station/object KG5TTF. If no packets are shown the sender has not sent any weather packets the latest 10 day(s).
| Time | Temp. | Humidity | Pressure | Rain* | Wind** | Luminosity | Snow |
|---|---|---|---|---|---|---|---|
| 1777842412 | 21.11° C | 13% | 1018.5 hPa | 0 mm | - | 224 W/m² | - |
| 1777842109 | 21.11° C | 13% | 1018.7 hPa | 0 mm | - | 909 W/m² | - |
| 1777841804 | 20° C | 14% | 1019 hPa | 0 mm | - | 559 W/m² | - |
| 1777841501 | 19.44° C | 15% | 1018.8 hPa | 0 mm | - | 810 W/m² | - |
| 1777841197 | 20° C | 14% | 1019.1 hPa | 0 mm | - | 354 W/m² | - |
| 1777840895 | 20° C | 14% | 1019.1 hPa | 0 mm | - | 227 W/m² | - |
| 1777840592 | 20.56° C | 13% | 1019.2 hPa | 0 mm | - | 216 W/m² | - |
| 1777840289 | 21.11° C | 13% | 1019 hPa | 0 mm | - | 367 W/m² | - |
| 1777839986 | 20.56° C | 15% | 1018.8 hPa | 0 mm | - | 907 W/m² | - |
| 1777839684 | 21.11° C | 14% | 1019.2 hPa | 0 mm | - | 884 W/m² | - |
| 1777839382 | 21.11° C | 13% | 1019.2 hPa | 0 mm | - | 907 W/m² | - |
| 1777839079 | 21.11° C | 13% | 1019.2 hPa | 0 mm | - | 904 W/m² | - |
| 1777838776 | 21.11° C | 12% | 1019.4 hPa | 0 mm | - | 867 W/m² | - |
| 1777838472 | 20.56° C | 14% | 1019.6 hPa | 0 mm | - | 841 W/m² | - |
| 1777838169 | 21.11° C | 14% | 1019.7 hPa | 0 mm | - | 921 W/m² | - |
| 1777837866 | 21.11° C | 13% | 1019.7 hPa | 0 mm | - | 854 W/m² | - |
| 1777837563 | 21.11° C | 12% | 1019.7 hPa | 0 mm | - | 653 W/m² | - |
| 1777837258 | 20.56° C | 13% | 1019.8 hPa | 0 mm | - | 908 W/m² | - |
| 1777836955 | 20.56° C | 12% | 1019.9 hPa | 0 mm | - | 975 W/m² | - |
| 1777836650 | 20.56° C | 14% | 1020 hPa | 0 mm | - | 999 W/m² | - |
| 1777836347 | 20.56° C | 14% | 1019.9 hPa | 0 mm | - | 1000 W/m² | - |
| 1777836043 | 20.56° C | 15% | 1020 hPa | 0 mm | - | 974 W/m² | - |
| 1777835739 | 20° C | 17% | 1019.9 hPa | 0 mm | - | 795 W/m² | - |
| 1777835436 | 20° C | 16% | 1020.4 hPa | 0 mm | - | 927 W/m² | - |
| 1777835133 | 19.44° C | 16% | 1020.5 hPa | 0 mm | - | 982 W/m² | - |
* Rain latest hour (hover to see other rain measurements)
** Current wind speed in m/s (hover to see current wind gust speed)